TROPICS-06

Satellite information

Favourite Embed

Satellite Type and Status

PAYLOADIN ORBIT

Key statistics

Satellite TROPICS-06 at a glance.

Uptime

853

Days in orbit

Revolutions

≈ 15.7

Per day

Orbit

LEO

Low Earth Orbit

Inclination

32.7

Latest

Satellite identification and parameters

Extended collection of information and parameters for TROPICS-06.

Object identification

Identified? True

Debris? False

Object name: TROPICS-06

International designator: 2023-062C

Object number (NORAD): 56444

Object ID (CCSDS): 56444

Country: UNITED STATES OF AMERICA (US)

Current information (Y/N): Y

RCS size: SMALL

Orbital parameters

Period: 91.602 minutes

Inclination: 32.7244 deg

SMA: 6731.259 km

Apoapsis: 354.83 km

Periapsis: 351.419 km

RAAN: 351.1785 deg

Eccentricy: 0.00025338

Argument of periapsis: 354.1541 deg

Mean anomaly: 5.9117 deg

Mean motion: 15.72020791 rev/day

Mean motion (dot): 0.00229281 rev/day2

B* drag term: 0.0016384738 1/REarth

Two-line elements (TLE)

Creation date: Sept. 7, 2025, 3:09 a.m.

Reference frame: TEME

Reference center: EARTH

Epoch: Sept. 6, 2025, 8:23 a.m. UTC

TLE line 0: 0 TROPICS-06

TLE line 1: 1 56444U 23062C 25249.34975902 .00229281 00000-0 16385-2 0 9996

TLE line 2: 2 56444 32.7244 351.1785 0002534 354.1541 5.9117 15.72020791130511

Live tracking on map

Real-time ground track for satellite TROPICS-06.

In-orbit conjunctions

There are no conjunctions computed for TROPICS-06, at the moment. Check back to stay up to date, as we update our databases every day.

Go to all conjunctions

Associated space launch

Third and fourth operational (TROPICS-04 & TROPICS-05) satellites for NASA's Time-Resolved Observations of Precipitation Structure and Storm Intensity with a Constellation of SmallSats (TROPICS) mission. The CubeSats are designed to provide rapid-refresh microwave measurements that can be used to determine temperature, pressure, and humidity inside hurricanes as they form and evolve.

TROPICS-06 was lifted into orbit during the mission ‘Electron | Rocket Like A Hurricane (TROPICS-2)’, on board a Electron space rocket.

The launch took place on May 8, 2023, 1 a.m. from Rocket Lab Launch Complex 1B.

For more information about the launch, click the button.

Launch to space Electron | Rocket Like A Hurricane (TROPICS-2)
Electron | Rocket Like A Hurricane (TROPICS-2)

Agency: National Aeronautics and Space Administration

Status: Launch Successful

Launch date: May 8, 2023, 1 a.m. UTC

Rocket: Electron

Launch pad: Rocket Lab Launch Complex 1B

Location: Rocket Lab Launch Complex 1, Mahia Peninsula, New Zealand

...

Latest news about this satellite

News about space launch
Tech From NASA’s Hurricane-hunting TROPICS Flies on Commercial Satellites

NASA science and American industry have worked hand-in-hand for more than 60 years, transforming novel technologies created with NASA research into commercial products like cochlear implants, memory-foam mattresses, and more. Now, a NASA-funded device for...

News about space launch
NASA’s TROPICS Mission: Offering Detailed Images and Analysis of Tropical Cyclones

Introduction Tropical cyclones represent a danger to life, property, and the economies of communities. Researchers who study tropical cyclones have focused on remote observations using space-based platforms to image these storms, inform forecasts, better ...

News about space launch
NASA TROPICS Constellation Fully Operational & Ready For Hurricane Season

NASA's TROPICS (Time-Resolved Observations of Precipitation structure and storm Intensity with a Constellation of Smallsats) are now fully operational, and are ready to bolster monitoring efforts for the ongoing Atlantic hurricane season.


Newsletter sign-up

Weekly statistics, charts and insights to help you stay on top of the space industry.